Track NUSAT 2 (BATATA) now! 10-day predictions NUSAT 2 (BATATA) is classified as:
1 41558U 16033C 23089.14728073 .00068960 00000-0 11287-2 0 9990 2 41558 97.4098 201.9333 0006590 61.2410 59.3011 15.52250339381665